This is the latest recevied weather packets stored in our database for station/object KR4CWL-13. If no packets are shown the sender has not sent any weather packets the latest 10 day(s).
| Time | Temp. | Humidity | Pressure | Rain* | Wind** | Luminosity | Snow |
|---|---|---|---|---|---|---|---|
| 1777349617 | 11.11° C | 89% | 1015.2 hPa | 0 mm | - | - | - |
| 1777349017 | 11.11° C | 88% | 1015.2 hPa | 0 mm | - | - | - |
| 1777348417 | 11.67° C | 88% | 1015.2 hPa | 0 mm | - | - | - |
| 1777347817 | 11.67° C | 87% | 1015.2 hPa | 0 mm | - | - | - |
| 1777347217 | 11.67° C | 86% | 1014.9 hPa | 0 mm | - | - | - |
| 1777346617 | 12.22° C | 85% | 1014.9 hPa | 0 mm | - | - | - |
| 1777346017 | 12.22° C | 83% | 1014.9 hPa | 0 mm | - | - | - |
| 1777345417 | 12.78° C | 84% | 1014.9 hPa | 0 mm | - | - | - |
| 1777344817 | 12.78° C | 82% | 1015.2 hPa | 0 mm | - | - | - |
| 1777344217 | 12.78° C | 79% | 1015.2 hPa | 0 mm | - | - | - |
| 1777343617 | 12.78° C | 82% | 1015.2 hPa | 0 mm | - | - | - |
| 1777343017 | 13.33° C | 78% | 1015.2 hPa | 0 mm | - | - | - |
| 1777342417 | 13.33° C | 82% | 1015.2 hPa | 0 mm | - | - | - |
| 1777341817 | 13.89° C | 80% | 1015.2 hPa | 0 mm | - | - | - |
| 1777341217 | 13.89° C | 80% | 1014.9 hPa | 0 mm | - | - | - |
| 1777340617 | 13.89° C | 73% | 1014.9 hPa | 0 mm | - | - | - |
| 1777340017 | 13.89° C | 78% | 1014.9 hPa | 0 mm | - | - | - |
| 1777339416 | 14.44° C | 78% | 1014.6 hPa | 0 mm | - | - | - |
| 1777338816 | 14.44° C | 77% | 1014.6 hPa | 0 mm | - | - | - |
| 1777338216 | 15° C | 74% | 1014.2 hPa | 0 mm | - | - | - |
| 1777337616 | 15.56° C | 73% | 1014.2 hPa | 0 mm | - | - | - |
| 1777337016 | 16.11° C | 68% | 1013.9 hPa | 0 mm | - | - | - |
| 1777336416 | 16.67° C | 70% | 1013.9 hPa | 0 mm | - | - | - |
| 1777335816 | 17.22° C | 63% | 1013.5 hPa | 0 mm | - | - | - |
| 1777335216 | 17.22° C | 60% | 1013.5 hPa | 0 mm | - | - | - |
* Rain since midnight (hover to see other rain measurements)
** Current wind speed in m/s (hover to see current wind gust speed)